Location: ActonStarParty
(42.4766°N, 71.4538°W)
Time: 06:10:53
(UTC-04:00)

Cosmos 1821 Rocket - Pass Details

Date: 19 April 2018
Orbit: 944 x 1006 km, 82.9° (Epoch: 23 May)

Event Time Altitude Azimuth Distance (km) Brightness Sun altitude
Exits shadow 22:08:31 50° 96° (E) 1,257 4.2 -25.3°
Maximum altitude 22:08:41 50° 91° (E) 1,255 4.2 -25.3°
Drops below altitude 10° 22:14:45 10° 18° (NNE) 2,757 6.7 -26.0°
Sets 22:17:20 0° 13° (NNE) 3,701 7.5 -26.4°
